Theta_e
316 317 317 317 316 316 316 316 316 313 314 314 314 318 320 318 317 318 323 327 327 327 327 328 330 329 328 328 332 334 340 341 342 342 341 340 340 340 340 340 341 340 341 342 342
316 317 318 318 318 316 316 316 315 314 314 314 315 320 320 318 318 325 328 327 326 327 327 329 329 328 329 331 335 337 339 340 339 340 341 340 340 341 341 341 342 342 341 341 339
317 317 318 319 319 317 316 316 316 316 315 314 316 322 319 317 327 329 328 327 326 327 327 326 326 331 336 335 336 339 340 338 338 340 340 340 339 341 342 342 342 341 341 338 331
318 318 318 320 320 318 316 316 316 316 315 315 317 322 320 323 335 330 328 327 327 326 325 325 334 334 336 337 336 338 338 338 339 340 339 340 340 341 342 343 342 342 339 333 328
319 319 319 320 320 319 317 316 316 317 318 315 317 322 323 328 333 330 328 328 327 324 324 327 337 338 340 335 334 337 338 339 339 339 340 341 342 343 342 343 343 341 336 331 329
318 319 319 320 320 319 317 316 317 316 319 315 317 322 322 329 329 328 329 328 325 325 326 330 335 336 338 338 337 338 339 339 339 339 341 342 342 342 343 343 343 340 337 332 330
318 319 319 319 320 319 317 316 317 317 319 315 316 321 325 329 328 326 326 325 325 326 327 331 334 335 336 340 342 341 338 336 339 339 342 342 343 342 343 343 342 340 339 333 332
317 318 319 319 320 318 316 318 319 318 318 317 316 320 329 326 327 326 326 326 325 326 327 331 332 334 338 335 333 339 340 344 340 340 340 337 341 342 342 342 341 341 340 336 333
317 318 318 320 320 318 316 319 319 319 320 316 318 320 331 326 327 327 327 328 328 328 328 329 334 338 336 338 339 339 346 345 342 339 341 341 346 344 342 342 341 341 340 339 337
316 317 318 319 319 317 317 322 321 320 317 317 325 326 328 326 327 327 328 328 329 328 329 330 334 337 339 337 342 336 341 342 342 340 339 342 346 345 341 341 341 341 342 340 339
316 317 318 319 318 316 321 322 323 326 325 325 324 327 329 329 327 326 328 326 328 329 330 332 336 337 338 341 337 336 336 338 337 338 335 339 342 346 342 340 341 340 342 338 339
315 316 318 319 318 318 320 322 320 321 322 324 324 326 326 328 328 328 328 327 328 330 331 332 333 334 333 333 333 336 337 336 338 339 336 341 339 345 343 341 340 341 340 339 339
315 316 317 318 319 321 321 321 320 321 324 326 323 324 326 326 329 329 328 328 330 330 331 332 332 333 333 333 336 334 336 336 336 335 339 341 341 342 343 342 340 340 340 338 338
314 316 317 318 320 320 322 320 320 321 328 325 323 324 326 326 327 330 329 329 330 330 331 331 331 333 333 336 335 337 335 336 338 340 343 339 340 345 344 342 341 340 340 340 339
314 315 316 316 318 321 321 319 320 323 336 326 324 325 325 326 328 329 329 329 330 330 332 331 332 333 334 336 335 334 334 337 339 342 342 341 342 346 345 345 343 341 340 338 338
314 314 315 318 320 322 320 320 322 329 336 327 326 326 326 326 329 329 329 328 329 331 332 330 332 333 333 335 334 334 337 340 340 342 349 342 341 344 344 339 335 341 340 338 338
313 314 315 316 318 321 320 323 330 334 331 327 327 326 326 326 328 329 329 329 330 331 332 332 331 332 334 334 337 337 341 342 346 344 347 341 339 340 335 334 333 335 339 338 336
313 314 315 316 318 320 322 327 332 333 332 328 327 326 326 327 327 328 329 329 330 331 332 332 333 336 335 335 335 336 337 341 341 339 340 339 339 340 337 336 335 334 335 338 337
313 316 319 322 324 320 322 331 333 334 331 330 327 326 326 327 327 327 329 330 331 331 334 333 336 336 335 335 334 337 339 338 340 339 339 337 339 338 338 338 337 336 335 336 337
314 318 323 325 321 321 326 330 329 330 328 330 330 328 328 328 327 330 329 330 332 332 333 334 337 336 336 334 333 334 335 339 339 343 343 339 339 339 339 336 337 337 337 336 337
314 323 326 324 321 322 327 329 328 326 326 330 333 331 330 330 329 330 330 331 332 333 332 333 337 336 336 336 337 336 337 342 340 339 341 336 338 338 341 339 339 336 337 337 337
318 325 327 323 322 324 327 327 324 326 326 328 328 333 333 331 331 332 331 332 331 332 333 333 337 339 335 335 335 335 338 339 341 342 340 340 338 337 340 338 334 335 335 336 337
323 323 326 321 324 327 325 325 324 327 327 328 329 332 332 333 331 332 333 332 331 331 337 338 340 337 335 336 336 336 337 337 338 341 342 341 340 337 339 337 336 336 334 335 335
323 325 325 323 322 328 329 325 324 326 325 328 331 332 333 333 331 333 331 331 332 332 333 336 344 339 336 337 335 336 337 335 339 341 340 335 335 342 340 339 334 333 337 335 336
323 324 328 327 324 325 328 329 327 327 326 329 332 333 333 334 333 331 332 332 331 335 333 336 336 335 334 333 334 335 336 336 336 339 340 334 333 340 339 337 335 334 338 336 336
323 323 326 328 328 325 324 328 327 326 327 328 331 333 332 335 337 339 339 341 333 336 333 343 339 335 336 334 335 335 334 335 333 333 331 332 334 336 334 335 336 335 336 332 333
322 324 328 325 329 328 327 327 328 327 327 328 331 333 333 338 336 336 335 336 337 339 343 344 343 344 339 335 335 336 335 334 333 332 332 337 337 338 338 337 334 331 330 330 332
Wind_Speed
13 16 18 21 24 24 24 24 23 20 14 10 8 6 5 2 3 6 6 8 9 6 7 6 10 10 12 17 9 38 2 8 13 16 11 14 15 19 15 21 22 17 17 12 9
12 15 18 21 24 25 24 25 23 20 14 10 8 5 2 2 6 9 11 11 9 6 4 5 13 13 15 11 11 18 3 3 12 17 16 18 20 14 14 17 17 16 13 11 11
11 14 17 20 23 25 25 25 23 21 13 9 6 2 3 6 4 10 13 12 10 5 4 10 12 18 21 12 9 15 6 14 14 15 14 12 19 16 18 11 14 13 14 12 11
11 13 16 19 23 25 25 24 23 19 11 8 4 2 7 6 2 7 9 10 7 5 6 11 5 2 15 21 24 14 15 16 13 17 15 19 16 9 16 17 12 14 13 12 11
12 13 16 18 22 25 26 23 21 15 12 7 3 5 5 6 7 7 10 8 5 4 7 13 2 10 10 21 15 10 11 13 14 14 14 15 15 11 13 12 11 12 12 11 10
12 14 15 18 22 25 26 23 22 13 11 6 4 7 5 10 4 5 10 7 3 8 14 13 12 14 19 14 10 10 13 11 11 12 10 16 15 10 10 11 10 10 10 9 9
12 14 15 17 21 24 25 22 19 10 7 5 5 7 7 8 3 7 7 7 7 9 14 8 10 5 6 18 40 36 10 22 9 13 14 11 5 8 13 12 10 10 8 7 7
11 13 15 17 20 24 24 19 18 9 4 5 6 6 7 5 6 8 9 8 8 8 11 9 7 9 23 8 14 3 8 8 12 17 19 14 8 12 15 14 12 12 10 8 6
11 13 15 17 20 23 21 16 11 5 3 3 4 5 9 8 11 10 10 9 7 8 8 8 9 22 36 14 8 14 7 15 14 8 18 11 5 20 19 17 16 16 15 13 11
11 12 14 16 19 22 17 15 10 6 3 4 3 4 13 11 14 11 10 9 8 7 8 9 3 1 10 8 10 4 5 8 13 10 6 13 12 19 23 18 17 17 16 16 11
11 11 13 15 18 17 14 18 11 1 6 11 11 14 4 13 13 10 10 8 10 10 13 18 10 10 13 24 17 15 17 15 10 4 4 8 10 20 22 17 13 12 19 12 11
11 11 13 14 16 12 11 11 10 9 11 12 13 24 7 9 12 14 13 9 13 12 19 14 7 5 9 8 11 18 6 8 7 0 4 6 4 20 23 18 15 13 11 11 16
10 10 12 13 12 8 9 8 10 9 7 14 14 15 13 10 16 20 18 16 16 13 18 11 14 9 11 10 12 7 13 16 10 7 8 11 16 12 16 18 16 15 16 11 18
9 9 12 12 9 11 10 9 10 7 5 11 12 12 12 13 16 22 21 19 17 17 20 8 16 5 12 13 8 0 8 13 16 17 10 22 5 13 12 10 15 16 16 18 18
9 8 9 11 13 8 10 11 11 4 5 13 16 7 13 18 17 21 24 23 19 19 19 14 11 6 13 1 11 12 10 12 18 11 6 16 8 10 11 13 16 19 16 15 14
9 9 9 8 12 8 13 13 7 6 5 8 11 10 11 17 16 17 18 21 23 17 19 14 6 7 13 9 8 9 6 5 6 3 5 18 12 6 10 4 3 22 18 16 13
9 9 10 10 9 12 14 10 6 7 5 10 12 14 14 13 18 10 15 16 15 13 16 16 14 7 4 15 9 19 17 2 3 5 4 2 9 9 11 9 3 1 20 17 12
9 11 10 12 10 12 10 8 7 3 3 6 3 10 12 11 14 13 14 17 18 22 16 10 5 11 7 15 9 7 1 6 8 11 7 6 4 4 4 6 4 2 1 21 18
8 6 12 9 5 8 9 8 9 13 9 6 7 6 11 13 12 15 15 17 20 20 17 15 5 13 11 14 5 2 2 9 11 14 13 2 7 6 14 8 8 3 2 8 18
8 9 13 9 7 4 7 12 9 4 5 7 10 9 10 12 9 14 14 16 19 22 22 14 3 14 16 14 14 12 9 11 5 3 9 14 8 5 13 9 5 6 5 5 11
8 7 6 8 4 8 9 6 2 5 4 7 11 5 11 8 11 12 8 13 16 17 13 10 7 2 6 5 12 11 14 6 2 2 5 7 9 6 17 11 14 8 7 9 11
7 10 6 6 9 13 10 8 3 6 2 4 6 9 10 11 2 6 3 1 8 15 5 9 4 11 14 4 8 4 13 7 2 6 12 14 1 7 2 13 14 25 3 7 9
7 16 5 7 6 9 7 5 3 5 3 3 3 3 4 7 3 10 5 9 11 4 6 7 5 8 14 16 10 6 17 4 6 6 11 12 3 7 10 24 23 33 42 4 4
7 6 6 11 15 11 4 6 8 8 6 5 9 4 6 6 3 5 5 5 6 2 4 4 6 9 12 16 14 7 13 9 8 4 18 10 13 14 14 13 28 18 23 8 8
7 9 2 6 12 12 5 6 7 6 9 5 5 10 6 4 5 7 8 8 7 4 1 1 6 11 16 19 21 10 19 18 16 16 14 13 16 16 12 12 17 26 17 8 5
7 7 4 8 6 11 6 8 8 7 5 10 8 11 1 8 7 10 14 11 3 9 7 6 6 11 15 17 10 11 19 21 7 10 13 14 13 13 10 5 8 37 5 21 28
8 10 8 10 8 7 10 10 8 7 2 15 9 5 7 8 8 11 8 6 6 5 7 7 6 9 14 6 11 9 15 10 9 10 10 10 14 16 14 21 21 21 19 18 18
Wind_Direction
11 8 8 11 7 6 4 359 358 351 342 339 336 337 326 283 213 199 203 231 256 253 268 292 297 294 288 266 90 60 70 244 122 163 110 87 81 76 66 77 84 105 128 112 92
7 2 3 6 3 2 0 355 356 349 337 332 331 338 316 182 179 228 235 234 267 254 281 276 304 304 278 267 88 109 177 79 95 97 96 82 105 116 106 99 98 96 100 100 92
358 357 359 357 358 357 356 353 353 345 331 324 324 335 163 159 211 225 232 254 241 251 228 313 307 332 319 50 32 106 99 71 57 65 89 99 89 106 112 93 108 121 109 105 98
346 350 352 351 353 352 352 351 351 348 335 319 305 185 175 178 274 238 233 225 228 252 293 281 15 302 272 40 5 75 62 64 61 50 68 95 104 72 108 117 117 106 114 109 95
332 340 345 347 347 348 348 347 348 345 337 314 265 195 185 260 266 278 204 211 236 257 272 284 356 246 111 87 310 78 85 86 72 72 92 87 85 94 95 106 113 123 125 113 107
321 330 337 341 342 344 345 342 340 337 331 308 250 203 238 260 282 195 195 215 206 258 269 264 261 210 122 140 191 89 54 104 108 101 102 96 119 123 132 134 134 143 129 123 107
313 321 329 336 339 341 342 339 342 341 331 300 244 232 252 286 216 185 188 221 258 266 300 319 347 301 15 92 52 12 13 325 153 122 126 113 180 124 157 162 161 153 149 128 121
308 315 323 332 338 340 340 338 337 318 288 301 229 229 276 198 184 197 204 236 255 268 291 312 297 314 83 86 80 307 351 308 155 151 119 119 259 151 174 182 167 168 165 169 145
302 311 320 330 337 340 339 335 355 9 311 247 201 232 260 218 194 199 207 231 245 276 293 300 307 69 31 317 292 174 210 233 148 161 160 163 178 196 187 193 176 179 173 184 178
296 308 318 329 337 341 342 336 328 346 68 143 216 244 245 225 182 200 210 244 237 275 263 242 224 128 155 194 276 100 36 193 122 153 182 222 158 159 186 206 181 182 186 179 201
292 306 316 328 337 345 4 354 332 205 258 243 216 225 169 153 168 196 206 227 240 263 262 236 184 254 166 208 257 47 46 357 324 98 286 274 154 168 181 203 204 178 183 196 196
289 303 314 326 338 355 347 0 8 329 302 263 252 216 280 182 202 207 198 221 234 257 262 278 269 265 345 326 335 20 54 224 250 238 296 251 221 161 169 192 201 194 222 203 168
283 300 311 323 340 351 339 346 343 327 268 243 224 221 216 226 229 202 199 214 245 250 271 303 283 32 306 307 15 324 323 321 352 326 213 263 257 166 162 181 199 205 195 223 173
277 297 309 317 316 314 309 336 339 331 273 158 199 219 200 203 226 210 206 217 236 263 270 264 287 356 289 41 152 16 258 304 354 343 30 339 327 156 161 181 193 207 207 199 184
270 287 303 323 318 323 332 328 321 315 262 148 183 179 205 209 209 222 205 219 240 250 272 287 302 341 334 187 315 327 2 53 4 2 68 288 293 124 154 197 205 202 208 207 185
267 280 290 305 303 319 315 315 306 240 221 147 151 203 212 204 223 208 215 213 239 262 274 273 294 294 305 315 303 326 79 74 300 304 61 256 240 134 200 148 308 186 190 201 180
263 272 277 280 278 316 320 310 237 252 152 141 175 182 206 196 224 213 198 215 226 238 255 256 258 240 324 286 36 306 345 336 268 224 188 297 289 84 60 53 51 119 174 176 174
264 272 271 276 284 302 307 267 258 298 130 77 227 182 206 186 213 233 197 220 218 250 266 276 249 309 301 272 306 40 311 27 301 336 328 75 87 118 70 82 65 8 240 172 178
271 288 289 280 276 278 282 246 279 10 37 316 179 226 209 182 205 202 228 222 224 221 253 275 31 315 277 262 290 315 275 297 311 328 303 220 156 339 318 144 110 147 187 182 180
267 279 258 211 255 258 255 259 297 18 357 268 268 215 196 186 200 205 205 221 233 233 226 263 209 218 272 316 264 257 5 334 77 31 341 319 44 180 266 63 95 146 177 211 161
267 250 170 206 247 243 245 273 124 67 345 309 333 335 283 179 195 240 235 211 222 252 219 251 271 244 162 223 3 32 287 57 73 281 249 315 33 36 18 76 16 335 179 186 191
256 246 168 191 231 231 246 330 8 303 223 267 303 305 330 341 232 282 179 163 213 226 257 242 289 288 289 216 206 220 336 36 273 313 318 303 328 323 102 73 129 266 237 210 215
248 243 202 198 238 241 204 266 237 261 267 304 267 293 357 314 311 289 89 70 37 358 20 349 260 270 273 269 74 294 287 198 131 84 246 251 350 247 76 42 2 338 318 218 202
274 218 181 214 253 286 291 227 205 203 273 275 297 303 272 267 216 291 271 112 94 43 65 5 300 294 283 303 290 223 261 250 214 192 261 322 323 75 82 93 126 225 276 269 168
248 239 331 195 225 240 274 331 216 203 224 228 269 262 252 282 223 208 278 144 171 133 188 245 279 279 281 281 288 195 258 234 234 234 257 335 341 120 150 182 222 240 300 213 132
282 265 225 278 322 197 152 250 250 233 222 223 247 266 250 270 352 347 11 15 221 162 223 168 273 287 288 287 351 332 320 299 351 357 335 342 333 27 172 26 40 75 31 358 16
246 286 287 223 209 247 219 226 217 267 261 259 284 305 250 7 6 341 323 327 321 338 204 231 260 285 291 340 295 261 244 274 15 354 341 335 2 32 33 61 57 64 45 34 25